When you browse on this site, cookies collect data to enhance your experience and personalize the content and advertising you see.
Visit our Privacy Policy to learn more. By continuing to use the site, you agree to this use of cookies and data.
  • în România
  • Lista ţărilor
  • Pe 7 zile
  • Temperatura apei
  • Hartă satelitară
  • Meteo pe hartă
  • Widget-uri
  • user-avatar
    Intrare

    Meteo pe oră la Maloe Svyatcovo

    Astăzi, 16 Ianuarie, Miercuri

    Timp Temperatura Precipitaţii Vânt Presiune Umiditate
    00:00 -9°C° 0 mm 4 m/s 724 mmHg 90%
    01:00 -8°C° 0 mm 3 m/s 725 mmHg 91%
    02:00 -8°C° 0 mm 3 m/s 725 mmHg 91%
    03:00 -9°C° 0 mm 3 m/s 725 mmHg 91%
    04:00 -9°C° 0 mm 3 m/s 725 mmHg 91%
    05:00 -9°C° 0 mm 3 m/s 726 mmHg 91%
    06:00 -10°C° 0 mm 3 m/s 726 mmHg 92%
    07:00 -10°C° 0 mm 3 m/s 726 mmHg 93%
    08:00 -12°C° 0 mm 3 m/s 726 mmHg 94%
    09:00 -10°C° 0 mm 3 m/s 726 mmHg 93%
    10:00 -10°C° 0 mm 3 m/s 727 mmHg 93%
    11:00 -9°C° 0 mm 3 m/s 727 mmHg 92%
    12:00 -9°C° 0 mm 3 m/s 727 mmHg 91%
    13:00 -8°C° 0 mm 3 m/s 727 mmHg 91%
    14:00 -8°C° 0 mm 3 m/s 728 mmHg 90%
    15:00 -8°C° 0 mm 3 m/s 728 mmHg 91%
    16:00 -9°C° 0 mm 3 m/s 728 mmHg 92%
    17:00 -8°C° 0 mm 2 m/s 729 mmHg 93%
    18:00 -9°C° 0 mm 3 m/s 729 mmHg 93%
    19:00 -8°C° 0 mm 3 m/s 729 mmHg 93%
    20:00 -8°C° 0 mm 3 m/s 729 mmHg 93%
    21:00 -8°C° 0 mm 3 m/s 730 mmHg 92%
    22:00 -8°C° 0 mm 3 m/s 730 mmHg 91%
    23:00 -8°C° 0 mm 3 m/s 730 mmHg 90%

    Mâine, 17 Ianuarie, Joi

    Timp Temperatura Precipitaţii Vânt Presiune Umiditate
    00:00 -9°C° 0 mm 3 m/s 731 mmHg 89%
    01:00 -9°C° 0 mm 3 m/s 731 mmHg 88%
    02:00 -9°C° 0 mm 3 m/s 731 mmHg 87%
    03:00 -10°C° 0 mm 3 m/s 731 mmHg 89%
    04:00 -10°C° 0 mm 3 m/s 731 mmHg 91%
    05:00 -12°C° 0 mm 3 m/s 731 mmHg 93%
    06:00 -10°C° 0.1 mm 3 m/s 730 mmHg 92%
    07:00 -11°C° 0.1 mm 4 m/s 729 mmHg 91%
    08:00 -11°C° 0.1 mm 5 m/s 729 mmHg 90%
    09:00 -10°C° 0.4 mm 5 m/s 728 mmHg 90%
    10:00 -8°C° 0.4 mm 5 m/s 728 mmHg 89%
    11:00 -8°C° 0.4 mm 6 m/s 727 mmHg 89%
    12:00 -6°C° 0.4 mm 6 m/s 726 mmHg 89%
    13:00 -5°C° 0.4 mm 6 m/s 726 mmHg 89%
    14:00 -4°C° 0.4 mm 6 m/s 725 mmHg 89%
    15:00 -3°C° 0.2 mm 6 m/s 725 mmHg 88%
    16:00 -3°C° 0.2 mm 6 m/s 724 mmHg 87%
    17:00 -2°C° 0.2 mm 6 m/s 724 mmHg 86%
    18:00 -2°C° 0.3 mm 6 m/s 723 mmHg 86%
    19:00 -2°C° 0.3 mm 7 m/s 723 mmHg 85%
    20:00 -2°C° 0.3 mm 7 m/s 722 mmHg 84%
    21:00 -2°C° 0.1 mm 7 m/s 722 mmHg 83%
    22:00 -2°C° 0.1 mm 7 m/s 721 mmHg 82%
    23:00 -2°C° 0.1 mm 7 m/s 721 mmHg 81%

    Poimâine, 18 Ianuarie, Vineri

    Timp Temperatura Precipitaţii Vânt Presiune Umiditate
    00:00 -2°C° 0.1 mm 7 m/s 721 mmHg 80%
    01:00 -2°C° 0.1 mm 8 m/s 722 mmHg 79%
    02:00 -1°C° 0.1 mm 8 m/s 722 mmHg 78%
    03:00 -2°C° 0.1 mm 7 m/s 723 mmHg 79%
    04:00 -2°C° 0.1 mm 7 m/s 724 mmHg 80%
    05:00 -2°C° 0.1 mm 7 m/s 724 mmHg 81%
    06:00 -3°C° 0.1 mm 6 m/s 725 mmHg 82%
    07:00 -2°C° 0.1 mm 5 m/s 726 mmHg 83%
    08:00 -4°C° 0.1 mm 5 m/s 727 mmHg 85%
    09:00 -3°C° 0 mm 4 m/s 727 mmHg 87%
    10:00 -2°C° 0 mm 2 m/s 727 mmHg 90%
    11:00 -1°C° 0 mm 1 m/s 727 mmHg 93%
    12:00 -2°C° 0.4 mm 2 m/s 726 mmHg 93%
    13:00 -2°C° 0.4 mm 2 m/s 726 mmHg 93%
    14:00 -1°C° 0.4 mm 2 m/s 725 mmHg 94%
    15:00 -1°C° 0.9 mm 3 m/s 725 mmHg 92%
    16:00 -3°C° 0.9 mm 4 m/s 725 mmHg 91%
    17:00 -4°C° 0.9 mm 5 m/s 725 mmHg 89%
    18:00 -6°C° 0.7 mm 5 m/s 726 mmHg 89%
    19:00 -10°C° 0.7 mm 6 m/s 727 mmHg 89%
    20:00 -12°C° 0.7 mm 6 m/s 727 mmHg 89%
    21:00 -13°C° 0.1 mm 5 m/s 728 mmHg 88%
    22:00 -13°C° 0.1 mm 5 m/s 730 mmHg 87%
    23:00 -12°C° 0.1 mm 4 m/s 731 mmHg 86%

    19 Ianuarie, Sâmbătă

    Timp Temperatura Precipitaţii Vânt Presiune Umiditate
    00:00 -12°C° 0 mm 4 m/s 731 mmHg 87%
    01:00 -14°C° 0 mm 4 m/s 732 mmHg 89%
    02:00 -13°C° 0 mm 3 m/s 732 mmHg 90%
    03:00 -11°C° 0.1 mm 4 m/s 732 mmHg 89%
    04:00 -10°C° 0.1 mm 4 m/s 732 mmHg 87%
    05:00 -10°C° 0.1 mm 5 m/s 732 mmHg 86%
    06:00 -9°C° 0.1 mm 4 m/s 733 mmHg 87%
    07:00 -8°C° 0.1 mm 3 m/s 733 mmHg 89%
    08:00 -9°C° 0.1 mm 3 m/s 733 mmHg 90%
    09:00 -10°C° 0.1 mm 4 m/s 734 mmHg 88%
    10:00 -9°C° 0.1 mm 4 m/s 734 mmHg 85%
    11:00 -10°C° 0.1 mm 5 m/s 735 mmHg 83%
    12:00 -10°C° 0.1 mm 5 m/s 735 mmHg 84%
    13:00 -8°C° 0.1 mm 4 m/s 736 mmHg 84%
    14:00 -8°C° 0.1 mm 4 m/s 736 mmHg 85%
    15:00 -8°C° 0.2 mm 4 m/s 736 mmHg 86%
    16:00 -8°C° 0.2 mm 4 m/s 736 mmHg 87%
    17:00 -8°C° 0.2 mm 4 m/s 736 mmHg 89%
    18:00 -8°C° 0 mm 4 m/s 737 mmHg 88%
    19:00 -8°C° 0 mm 4 m/s 737 mmHg 88%
    20:00 -9°C° 0 mm 4 m/s 737 mmHg 88%
    21:00 -9°C° 0 mm 4 m/s 737 mmHg 87%
    22:00 -8°C° 0 mm 4 m/s 737 mmHg 87%
    23:00 -8°C° 0 mm 4 m/s 737 mmHg 87%

    20 Ianuarie, Duminică

    Timp Temperatura Precipitaţii Vânt Presiune Umiditate
    00:00 -9°C° 0 mm 4 m/s 737 mmHg 87%
    01:00 -9°C° 0 mm 4 m/s 737 mmHg 88%
    02:00 -9°C° 0 mm 4 m/s 737 mmHg 89%
    03:00 -9°C° 0 mm 4 m/s 737 mmHg 89%
    04:00 -9°C° 0 mm 4 m/s 737 mmHg 90%
    05:00 -8°C° 0 mm 3 m/s 737 mmHg 91%
    06:00 -9°C° 0 mm 3 m/s 738 mmHg 92%
    07:00 -8°C° 0 mm 2 m/s 738 mmHg 93%
    08:00 -8°C° 0 mm 2 m/s 738 mmHg 93%
    09:00 -8°C° 0 mm 2 m/s 738 mmHg 92%
    10:00 -7°C° 0 mm 2 m/s 739 mmHg 90%
    11:00 -8°C° 0 mm 3 m/s 739 mmHg 89%
    12:00 -7°C° 0 mm 2 m/s 739 mmHg 89%
    13:00 -7°C° 0 mm 2 m/s 739 mmHg 90%
    14:00 -6°C° 0 mm 2 m/s 739 mmHg 90%
    15:00 -7°C° 0 mm 2 m/s 739 mmHg 92%
    16:00 -9°C° 0 mm 2 m/s 738 mmHg 94%
    17:00 -10°C° 0 mm 2 m/s 738 mmHg 95%
    18:00 -9°C° 0 mm 1 m/s 738 mmHg 95%
    19:00 -9°C° 0 mm 1 m/s 738 mmHg 95%
    20:00 -9°C° 0 mm 1 m/s 738 mmHg 95%
    21:00 -9°C° 0.1 mm 1 m/s 738 mmHg 96%
    22:00 -8°C° 0.1 mm 1 m/s 738 mmHg 96%
    23:00 -8°C° 0.1 mm 1 m/s 738 mmHg 96%

    21 Ianuarie, Luni

    Timp Temperatura Precipitaţii Vânt Presiune Umiditate
    00:00 -8°C° 0 mm 1 m/s 738 mmHg 97%
    01:00 -8°C° 0 mm 1 m/s 738 mmHg 97%
    02:00 -9°C° 0 mm 1 m/s 738 mmHg 97%
    03:00 -9°C° 0.1 mm 1 m/s 738 mmHg 97%
    04:00 -9°C° 0.1 mm 1 m/s 738 mmHg 97%
    05:00 -9°C° 0.1 mm 1 m/s 738 mmHg 97%
    06:00 -9°C° 0 mm 1 m/s 739 mmHg 97%
    07:00 -9°C° 0 mm 1 m/s 739 mmHg 97%
    08:00 -9°C° 0 mm 1 m/s 739 mmHg 97%
    09:00 -9°C° 0 mm 1 m/s 739 mmHg 96%
    10:00 -8°C° 0 mm 1 m/s 739 mmHg 95%
    11:00 -9°C° 0 mm 2 m/s 739 mmHg 94%
    12:00 -8°C° 0 mm 2 m/s 739 mmHg 93%
    13:00 -8°C° 0 mm 2 m/s 740 mmHg 92%
    14:00 -8°C° 0 mm 2 m/s 740 mmHg 91%
    15:00 -8°C° 0.1 mm 1 m/s 740 mmHg 93%
    16:00 -9°C° 0.1 mm 1 m/s 740 mmHg 94%
    17:00 -9°C° 0.1 mm 1 m/s 740 mmHg 96%
    18:00 -10°C° 0 mm 1 m/s 740 mmHg 96%
    19:00 -10°C° 0 mm 1 m/s 740 mmHg 97%
    20:00 -11°C° 0 mm 1 m/s 741 mmHg 97%
    21:00 -14°C° 0 mm 2 m/s 741 mmHg 97%
    22:00 -14°C° 0 mm 2 m/s 741 mmHg 97%
    23:00 -15°C° 0 mm 2 m/s 741 mmHg 97%
    Arată mai mult